Location: Chippewa Lake
(41.0698°N, 81.9010°W)
Time: 21:23:25
(UTC+00:00)

ADEOS Rocket - Pass Details

Date: 09 May 2021
Orbit: 858 x 1307 km, 98.7° (Epoch: 16 June)

Event Time Altitude Azimuth Distance (km) Brightness Sun altitude
Exits shadow 08:47:28 11° 193° (SSW) 2,998 5.1 -14.9°
Maximum altitude 08:54:01 46° 263° (W) 1,631 3.8 -13.9°
Drops below altitude 10° 09:01:21 10° 335° (NNW) 3,314 5.9 -12.8°
Sets 09:04:17 0° 342° (NNW) 4,304 6.6 -12.4°
